GLOBALSTAR M069 1 31573U 07020C 26123.74259073 -.00000053 00000+0 36381-3 0 9991 2 31573 52.0058 17.9201 0002513 59.6856 337.0018 12.23470332873367 GLOBALSTAR M072 1 31574U 07020D 26123.70405083 -.00000049 00000+0 47348-3 0 9992 2 31574 51.9926 218.6727 0001419 203.2053 324.0475 11.91657566869675 GLOBALSTAR M066 1 32265U 07048C 26123.46615899 -.00000072 00000+0 18677-3 0 9990 2 32265 51.9572 186.2950 0004444 305.8424 67.2804 12.30387922854722 GLOBALSTAR M079 1 37188U 10054A 26123.62433071 -.00000085 00000+0 10532-3 0 9994 2 37188 52.0042 244.3261 0000445 148.0321 225.6596 12.62265246716922 GLOBALSTAR M074 1 37189U 10054B 26123.76325991 -.00000086 00000+0 99240-4 0 9996 2 37189 52.0016 243.1755 0000557 110.0869 55.0540 12.62267676717541 GLOBALSTAR M076 1 37190U 10054C 26123.78777984 -.00000086 00000+0 98008-4 0 9994 2 37190 52.0028 243.2985 0000333 105.2413 52.3459 12.62272462717262 GLOBALSTAR M077 1 37191U 10054D 26123.69465683 -.00000092 00000+0 -25139-3 0 9997 2 37191 51.9970 292.2250 0003308 94.5875 347.1328 11.67547316715943 GLOBALSTAR M075 1 37192U 10054E 26123.62551507 -.00000101 00000+0 17898-4 0 9996 2 37192 51.9952 285.8734 0000787 109.9725 329.0462 12.62266305716314 GLOBALSTAR M073 1 37193U 10054F 26123.64440913 -.00000066 00000+0 21163-3 0 9996 2 37193 52.0054 199.8818 0000207 176.3695 347.5386 12.62266687718302 GLOBALSTAR M083 1 37739U 11033A 26123.38644799 -.00000105 00000+0 -90957-5 0 9993 2 37739 51.9841 148.9556 0000122 246.6322 126.0587 12.62262804687291 GLOBALSTAR M088 1 37740U 11033B 26123.55388662 -.00000110 00000+0 -35920-4 0 9992 2 37740 52.0228 54.7645 0000612 60.8763 110.9532 12.62263156682856 GLOBALSTAR M091 1 37741U 11033C 26123.86276483 -.00000089 00000+0 83413-4 0 9998 2 37741 52.0024 16.8556 0000647 88.1074 349.4519 12.62262973683689 GLOBALSTAR M085 1 37742U 11033D 26123.77110663 -.00000094 00000+0 52680-4 0 9994 2 37742 52.0142 328.3894 0000722 108.8492 332.1735 12.62263049684185 GLOBALSTAR M081 1 37743U 11033E 26123.88162317 -.00000086 00000+0 98952-4 0 9993 2 37743 51.9975 330.5404 0000707 89.4091 13.3890 12.62263927684345 GLOBALSTAR M089 1 37744U 11033F 26123.76288365 -.00000100 00000+0 19840-4 0 9999 2 37744 51.9936 285.0692 0000817 87.4112 16.0488 12.62266120685173 GLOBALSTAR M084 1 38040U 11080A 26123.36027326 -.00000088 00000+0 90451-4 0 9997 2 38040 51.9986 153.7517 0000277 41.0735 331.8952 12.62266851663106 GLOBALSTAR M080 1 38041U 11080B 26123.52353391 -.00000080 00000+0 13415-3 0 9996 2 38041 52.0039 154.9580 0000559 153.2213 11.7825 12.62268812663248 GLOBALSTAR M082 1 38042U 11080C 26123.69868977 -.00000114 00000+0 -54336-4 0 9993 2 38042 52.0054 109.9183 0000232 137.2826 34.1530 12.62269513663976 GLOBALSTAR M092 1 38043U 11080D 26123.67106281 -.00000070 00000+0 18950-3 0 9996 2 38043 52.0075 200.3995 0000370 127.8933 37.2475 12.62266882662421 GLOBALSTAR M090 1 38044U 11080E 26123.72545889 -.00000120 00000+0 -92755-4 0 9997 2 38044 52.0106 103.7780 0000180 36.6838 135.5463 12.62268397664092 GLOBALSTAR M086 1 38045U 11080F 26123.66847487 -.00000111 00000+0 -37904-4 0 9995 2 38045 51.9879 103.9541 0000980 328.3846 202.7342 12.62285701664038 GLOBALSTAR M097 1 39072U 13005A 26123.74004624 -.00000098 00000+0 34431-4 0 9997 2 39072 52.0074 18.6325 0000530 79.6257 280.4670 12.62260063611294 GLOBALSTAR M093 1 39073U 13005B 26123.39703288 -.00000087 00000+0 96217-4 0 9999 2 39073 52.0131 13.0090 0000410 82.6086 277.4827 12.62264799611209 GLOBALSTAR M094 1 39074U 13005C 26123.71380428 -.00000102 00000+0 93211-5 0 9993 2 39074 51.9960 286.2080 0000601 123.9281 236.1642 12.62267990612854 GLOBALSTAR M096 1 39075U 13005D 26123.88551147 -.00000090 00000+0 75780-4 0 9996 2 39075 52.0091 334.4514 0000690 102.2374 257.8570 12.62264605611793 GLOBALSTAR M078 1 39076U 13005E 26123.77922394 -.00000112 00000+0 -46012-4 0 9993 2 39076 51.9883 58.8400 0000982 135.2968 224.7977 12.62265950610406 GLOBALSTAR M095 1 39077U 13005F 26123.48930237 -.00000114 00000+0 -59003-4 0 9993 2 39077 52.0092 57.2650 0000346 114.9586 245.1317 12.62267327610220 GLOBALSTAR M087 1 52888U 22064A 26123.50274682 -.00000069 00000+0 19653-3 0 9995 2 52888 51.9989 198.4936 0000436 172.1816 187.9057 12.62268580185497